Home   Weather   Tangier   Past weeks

Flag for Morocco Past Weather in Tangier, Morocco — Yesterday and Last 2 Weeks

70 °F

Partly sunny.

Feels Like: 70 °F
Forecast: 71 / 79 °F
Wind: 12 mph from East

Location: Tanger Aerodrome

Current Time: Oct 26, 2016 at 8:44:53 AM

Latest Report: Oct 26, 2016 at 8:00 AM

Visibility: 5 mi

Pressure: 30.04 "Hg

Humidity: 78%

Dew Point: 63 °F

Location of TangierLocation

Past Weather in Tangier — Graph


Tangier Temperature Yesterday

Maximum temperature yesterday: 79 °F (at 12:30 PM)
Minimum temperature yesterday: 64 °F (at 5:00 AM)
Average temperature yesterday: 70 °F

High & Low Weather Summary for the Past Weeks

High84 °F (Oct 18, 1:00 PM)94% (Oct 12, 2:30 PM)30.21 "Hg (Oct 12, 2:30 PM)
Low55 °F (Oct 15, 3:30 AM)37% (Oct 18, 1:00 PM)29.62 "Hg (Oct 13, 3:00 AM)
Average68 °F76%29.93 "Hg
* Reported Oct 11 7:00 AM — Oct 26 7:00 AM, Tangier, Weather by CustomWeather, © 2016

Note: Actual official high and low records may vary slightly from our data, if they occured in-between our weather recording intervals... More about our weather records


Tangier Weather History for the Previous 24 Hours

Scroll right to see more
Time TempWeatherWind HumidityBarometerVisibility
7:00 AM
Wed, Oct 26
70 °FPartly sunny.13 mph78%30.01 "Hg5 mi
6:30 AM70 °FPassing clouds.10 mph73%30.01 "Hg5 mi
6:00 AM70 °FPassing clouds.12 mph73%30.01 "Hg5 mi
5:30 AM70 °FPassing clouds.12 mph73%30.01 "Hg5 mi
5:00 AM72 °FPassing clouds.13 mph73%30.01 "HgN/A
4:30 AM70 °FPassing clouds.9 mph78%30.01 "HgN/A
4:00 AM70 °FPassing clouds.8 mph78%30.01 "HgN/A
3:30 AM72 °FPassing clouds.12 mph73%30.01 "HgN/A
3:00 AM72 °FPassing clouds.12 mph73%30.01 "HgN/A
2:30 AM70 °FPassing clouds.15 mph78%30.01 "HgN/A
2:00 AM70 °FPassing clouds.13 mph78%30.01 "HgN/A
1:30 AM70 °FPassing clouds.15 mph78%30.01 "HgN/A
1:00 AM70 °FPassing clouds.9 mph78%30.01 "Hg5 mi
12:30 AM68 °FPassing clouds.12 mph83%30.01 "Hg5 mi
12:00 AM68 °FPassing clouds.9 mph83%30.01 "Hg5 mi
11:30 PM
Tue, Oct 25
70 °FPassing clouds.14 mph78%30.01 "Hg5 mi
11:00 PM70 °FPartly cloudy.13 mph78%30.04 "Hg5 mi
10:30 PM70 °FPartly cloudy.12 mph78%30.04 "Hg5 mi
10:00 PM70 °FPartly cloudy.12 mph78%30.01 "Hg5 mi
8:30 PM72 °FPartly cloudy.13 mph73%30.01 "Hg5 mi
8:00 PM72 °FPartly cloudy.8 mph69%29.98 "Hg5 mi
7:30 PM73 °FPartly cloudy.9 mph65%29.98 "Hg5 mi
7:00 PM73 °FPartly cloudy.9 mph65%29.98 "Hg5 mi
6:30 PM73 °FPartly cloudy.9 mph69%29.95 "Hg5 mi
6:00 PM75 °FPartly cloudy.9 mph65%29.98 "Hg5 mi
5:30 PM75 °FBroken clouds.10 mph65%29.98 "Hg5 mi
5:00 PM75 °FBroken clouds.12 mph65%29.95 "Hg5 mi
4:30 PM73 °FBroken clouds.13 mph69%29.95 "Hg5 mi
4:00 PM73 °FPartly sunny.13 mph69%29.95 "Hg5 mi
3:30 PM77 °FPartly sunny.15 mph57%29.95 "Hg5 mi
3:00 PM77 °FPartly sunny.12 mph57%29.95 "Hg5 mi
2:30 PM79 °FPartly sunny.13 mph54%29.95 "Hg5 mi
2:00 PM79 °FPartly sunny.13 mph54%29.95 "Hg5 mi
1:30 PM79 °FPartly sunny.10 mph54%29.95 "Hg5 mi
1:00 PM79 °FPartly sunny.8 mph54%29.98 "Hg5 mi
12:30 PM79 °FBroken clouds.8 mph54%29.98 "Hg5 mi
12:00 PM77 °FBroken clouds.8 mph57%29.95 "Hg5 mi
11:30 AM77 °FBroken clouds.6 mph54%29.95 "Hg5 mi
11:00 AM73 °FBroken clouds.3 mph65%29.95 "Hg5 mi
10:30 AM70 °FBroken clouds.5 mph73%29.95 "Hg5 mi
10:00 AM68 °FBroken clouds.7 mph78%29.95 "Hg5 mi
9:30 AM66 °FBroken clouds.5 mph83%29.95 "Hg5 mi
9:00 AM64 °FBroken clouds.7 mph83%29.92 "Hg5 mi
8:30 AM64 °FScattered clouds.8 mph83%29.92 "Hg5 mi
8:00 AM64 °FScattered clouds.6 mph83%29.92 "Hg5 mi
Weather by CustomWeather, © 2016

See weather overviewHow to use our weather pages